[[{"header":{"parameterUnit":"m.s-1","parameterCategory":1,"la1":30.2991,"la2":30.254,"lo1":-89.0895,"lo2":-89.0444,"dy":0.0017,"dx":0.0017,"nx":28,"ny":28,"refTime":"2024-03-18T21:00:00:Z","depth":0,"parameterNumber":2,"parameterNumberName":"U-component_of_WINDS"},"data":[0,0,0,0,0,0,0,0,0,0,0,0,0,0,0,0,0,0,0,0,0,0,0,0,0,0,0,0,0,0,0,0,0,0,0,0,0,0,0,0,0,0,0,0,0,0,0,0,0,0,0,0,0,0,0,0,0,0,-3.4384,-3.4385,0,-3.4427,-3.4427,-3.4428,-3.4311,-3.4308,-3.4304,-3.4301,-3.4345,-3.4349,-3.4354,0,0,0,0,0,0,0,0,0,0,0,0,0,-3.4201,-3.4205,-3.4384,-3.4385,-3.4385,-3.4427,-3.4427,-3.4428,-3.4312,-3.4308,-3.4303,-3.4299,-3.4343,-3.4349,-3.4354,0,0,0,0,0,0,0,0,0,0,0,0,0,-3.4266,-3.4206,-3.4384,-3.4332,-3.4328,-3.4427,-3.4427,-3.4428,-3.4313,-3.4307,-3.4302,-3.4297,-3.4342,-3.4348,-3.4355,-3.4506,0,0,-3.4376,-3.4379,0,0,0,0,0,0,0,0,-3.4262,-3.4273,-3.434,-3.4336,-3.4332,-3.4358,-3.4379,-3.4454,-3.4314,-3.4319,-3.4301,-3.4294,-3.4354,-3.4359,-3.4379,-3.4508,-3.451,-3.4376,-3.4381,-3.4383,-3.4385,0,0,0,0,0,0,0,-3.4258,-3.427,-3.4401,-3.4341,-3.4336,-3.4306,-3.431,-3.4393,-3.4366,-3.4318,-3.431,-3.4316,-3.435,-3.4373,-3.4379,-3.451,-3.4376,-3.4382,-3.4386,-3.4389,-3.4762,-3.4768,0,0,0,0,0,0,-3.426,-3.4267,-3.44,-3.4402,-3.4283,-3.4314,-3.4318,-3.4355,-3.4365,-3.4361,-3.4321,-3.4311,-3.4364,-3.4371,-3.438,-3.4556,-3.4383,-3.439,-3.4394,-3.4756,-3.4763,-3.477,0,0,0,0,0,0,-3.4257,-3.4273,-3.4398,-3.4333,-3.4346,-3.4323,-3.4366,-3.4359,-3.4381,-3.4367,-3.4362,-3.4349,-3.436,-3.4371,-3.4475,-3.4556,-3.4393,-3.4399,-3.475,-3.4759,-3.4767,-3.491,0,0,0,0,0,0,-3.4252,-3.4273,-3.433,-3.4335,-3.435,-3.4493,-3.4371,-3.4364,-3.4393,-3.438,-3.4392,-3.4388,-3.4356,-3.4465,-3.4482,-3.4563,-3.4404,-3.4742,-3.4754,-3.4764,-3.4898,-3.4923,-3.4944,0,0,0,0,0,-3.4246,-3.437,-3.4334,-3.4351,-3.4422,-3.4498,-3.4507,-3.4467,-3.44,-3.4458,-3.4448,-3.4388,-3.4545,-3.4477,-3.4494,-3.4579,-3.4737,-3.475,-3.4763,-3.4888,-3.4918,-3.4944,0,0,0,0,0,0,-3.4377,-3.437,-3.433,-3.4459,-3.448,-3.4478,-3.4549,-3.4501,-3.4541,-3.4528,-3.4477,-3.448,-3.4593,-3.4596,-3.4521,-3.4724,-3.4629,-3.4646,-3.4718,-3.4747,-3.4769,-3.4766,-3.441,0,0,0,0,0,-3.442,-3.4483,-3.4473,-3.4588,-3.46,-3.4573,-3.4605,-3.4572,-3.4592,-3.46,-3.4599,-3.462,-3.4673,-3.471,-3.4759,-3.4898,-3.4898,-3.4964,-3.4987,-3.5006,-3.5021,-3.5093,-3.5122,-3.4813,-3.4813,-3.4812,0,0,-3.4512,-3.4515,-3.4558,-3.4614,-3.4627,-3.4692,-3.4582,-3.4656,-3.4703,-3.4612,-3.471,-3.4709,-3.4729,-3.4851,-3.4904,-3.4857,-3.5106,-3.5022,-3.5038,-3.5043,-3.511,-3.5139,-3.5165,-3.4822,-3.482,-3.4819,0,0,-3.4711,-3.4721,-3.4817,-3.4831,-3.485,-3.4831,-3.4854,-3.4859,-3.4855,-3.4952,-3.4884,-3.494,-3.5034,-3.505,-3.5071,-3.5274,-3.522,-3.5291,-3.5411,-3.5482,-3.5506,-3.5527,-3.5599,-3.5625,-3.5307,-3.5307,-3.5307,0,-3.4823,-3.4918,-3.4872,-3.4951,-3.4977,-3.4895,-3.4991,-3.5007,-3.5042,-3.5062,-3.5007,-3.5122,-3.513,-3.5253,-3.5303,-3.5323,-3.5346,-3.529,-3.5506,-3.5527,-3.5547,-3.5614,-3.5641,-3.5315,-3.5315,-3.5314,-3.5313,0,-3.5054,-3.5121,-3.5196,-3.523,-3.5264,-3.5352,-3.5318,-3.5358,-3.5322,-3.5308,-3.5407,-3.5413,-3.5461,-3.5487,-3.5453,-3.5606,-3.5575,-3.5515,-3.5419,-3.5585,-3.5648,-3.5674,-3.5328,-3.5325,-3.5322,-3.532,0,0,-3.534,-3.5345,-3.5374,-3.5387,-3.5401,-3.5452,-3.5535,-3.558,-3.5615,-3.5641,-3.5708,-3.5788,-3.5731,-3.5755,-3.5722,-3.5784,-3.5943,-3.5715,-3.5714,-3.5757,-3.611,-3.6155,-3.6186,-3.5906,-3.5911,-3.5915,-3.6108,0,-3.5536,-3.5677,-3.5636,-3.5778,-3.5838,-3.576,-3.5831,-3.5848,-3.5836,-3.5885,-3.5872,-3.593,-3.5851,-3.5864,-3.5922,-3.5911,-3.6013,-3.5897,-3.5968,-3.5971,-3.5966,-3.6219,-3.6268,-3.645,-3.6132,-3.6136,-3.6139,0,-3.5784,-3.5819,-3.5966,-3.5968,-3.5992,-3.6057,-3.6094,-3.6142,-3.6158,-3.6145,-3.6171,-3.6124,-3.6203,-3.6106,-3.6215,-3.6137,-3.6163,-3.6162,-3.6168,-3.6173,-3.6066,-3.6231,-3.6507,-3.6534,-3.6177,-3.6174,-3.6172,0,-3.5977,-3.606,-3.6158,-3.6173,-3.6178,-3.6225,-3.6229,-3.6239,-3.6269,-3.6301,-3.6319,-3.6361,-3.6384,-3.6417,-3.6383,-3.6315,-3.6496,-3.6396,-3.6487,-3.6488,-3.6529,-3.6528,-3.6814,-3.6547,-3.6547,-3.6546,-3.6545,0,-3.6201,-3.6294,-3.6245,-3.6305,-3.6406,-3.6358,-3.6459,-3.6455,-3.6464,-3.6522,-3.6457,-3.6512,-3.6462,-3.6513,-3.6486,-3.658,-3.6591,-3.6582,-3.6574,-3.6588,-3.6589,-3.6605,-3.6591,-3.6553,-3.6552,-3.655,-3.6549,0,-3.6434,-3.6405,-3.6507,-3.6502,-3.6503,-3.6578,-3.6573,-3.6628,-3.6611,-3.6685,-3.6699,-3.6673,-3.6728,-3.6696,-3.6754,-3.6736,-3.6857,-3.6832,-3.6852,-3.6845,-3.6937,-3.6929,-3.7244,-3.7282,-3.6991,-3.6994,-3.6996,0,-3.6579,-3.6648,-3.6651,-3.6684,-3.6692,-3.6747,-3.6776,-3.6731,-3.6764,-3.6785,-3.6838,-3.6888,-3.6925,-3.7018,-3.7004,-3.7047,-3.7022,-3.7129,-3.7028,-3.704,-3.7023,-3.7019,-3.7025,-3.715,-3.7153,-3.7156,-3.7158,0,-3.6839,-3.682,-3.6865,-3.6904,-3.694,-3.6968,-3.6992,-3.7023,-3.6977,-3.7017,-3.7073,-3.7102,-3.7159,-3.721,-3.7246,-3.7249,-3.7197,-3.719,-3.7213,-3.7228,-3.7237,-3.7233,-3.6907,-3.7183,-3.7181,-3.7179,-3.7178,-3.7177,-3.7032,-3.7089,-3.7099,-3.715,-3.7162,-3.7184,-3.7235,-3.7224,-3.7269,-3.7312,-3.7282,-3.7348,-3.736,-3.7403,-3.7413,-3.7463,-3.742,-3.7454,-3.7462,-3.7471,-3.7484,-3.7229,-3.747,-3.7469,-3.7468,-3.7467,-3.7467,0,-3.7288,-3.729,-3.7337,-3.737,-3.741,-3.7355,-3.7377,-3.7414,-3.7472,-3.7488,-3.7525,-3.7588,-3.7636,-3.7625,-3.7667,-3.771,-3.7686,-3.7722,-3.7719,-3.772,-3.752,-3.7496,-3.774,-3.774,-3.774,-3.774,-3.774,-3.774,-3.7426,-3.7519,-3.7501,-3.7599,-3.76,-3.7663,-3.768,-3.77,-3.7712,-3.7785,-3.7824,-3.7816,-3.782,-3.7861,-3.7902,-3.7897,-3.7916,-3.7961,-3.7948,-3.7761,-3.7734,-3.7709,-3.7685,-3.7966,-3.7966,-3.8143,-3.8145,-3.8146]},{"header":{"parameterUnit":"m.s-1","parameterCategory":1,"la1":30.2991,"la2":30.254,"lo1":-89.0895,"lo2":-89.0444,"dy":0.0017,"dx":0.0017,"nx":28,"ny":28,"refTime":"2024-03-18T21:00:00:Z","depth":0,"parameterNumber":3,"parameterNumberName":"V-component_of_WINDS"},"data":[0,0,0,0,0,0,0,0,0,0,0,0,0,0,0,0,0,0,0,0,0,0,0,0,0,0,0,0,0,0,0,0,0,0,0,0,0,0,0,0,0,0,0,0,0,0,0,0,0,0,0,0,0,0,0,0,0,0,-6.1407,-6.1408,0,-6.1528,-6.1529,-6.1531,-6.1447,-6.1443,-6.144,-6.1436,-6.1556,-6.1563,-6.1569,0,0,0,0,0,0,0,0,0,0,0,0,0,-6.1097,-6.1104,-6.1407,-6.1408,-6.141,-6.1528,-6.1529,-6.1531,-6.1448,-6.1443,-6.1439,-6.1434,-6.1554,-6.1562,-6.157,0,0,0,0,0,0,0,0,0,0,0,0,0,-6.1226,-6.1106,-6.1406,-6.1383,-6.1382,-6.1527,-6.1529,-6.1531,-6.1449,-6.1443,-6.1437,-6.1432,-6.1551,-6.1561,-6.1571,-6.1745,0,0,-6.1602,-6.1606,0,0,0,0,0,0,0,0,-6.1219,-6.1238,-6.1384,-6.1384,-6.1384,-6.1467,-6.1464,-6.1603,-6.145,-6.1423,-6.1436,-6.1429,-6.1531,-6.1542,-6.1577,-6.1751,-6.1756,-6.1602,-6.1608,-6.1613,-6.1616,0,0,0,0,0,0,0,-6.121,-6.1232,-6.1454,-6.1387,-6.1386,-6.1364,-6.1376,-6.149,-6.1507,-6.1425,-6.1419,-6.1435,-6.1529,-6.1567,-6.1579,-6.1758,-6.1602,-6.1611,-6.1617,-6.1621,-6.2078,-6.2084,0,0,0,0,0,0,-6.1204,-6.1225,-6.145,-6.1458,-6.1286,-6.1374,-6.1387,-6.1446,-6.1505,-6.1509,-6.144,-6.1431,-6.1553,-6.1567,-6.1583,-6.179,-6.1613,-6.1622,-6.1628,-6.2072,-6.208,-6.2086,0,0,0,0,0,0,-6.1198,-6.1225,-6.1446,-6.134,-6.1367,-6.1385,-6.1451,-6.1451,-6.1489,-6.1517,-6.1518,-6.1476,-6.1549,-6.1569,-6.1705,-6.1793,-6.1627,-6.1636,-6.2065,-6.2074,-6.2083,-6.2206,0,0,0,0,0,0,-6.1189,-6.1223,-6.1292,-6.1342,-6.1373,-6.1568,-6.1457,-6.1457,-6.1507,-6.1497,-6.1551,-6.1555,-6.1546,-6.1691,-6.1715,-6.1803,-6.1644,-6.2057,-6.2069,-6.208,-6.2194,-6.2218,-6.2238,0,0,0,0,0,-6.1179,-6.1321,-6.1296,-6.1323,-6.1458,-6.1574,-6.159,-6.1579,-6.1515,-6.1582,-6.1599,-6.1553,-6.1779,-6.1706,-6.1732,-6.1825,-6.2052,-6.2066,-6.2079,-6.2184,-6.2213,-6.2238,0,0,0,0,0,0,-6.1279,-6.1327,-6.13,-6.1463,-6.1515,-6.1559,-6.1644,-6.1611,-6.1681,-6.1668,-6.1649,-6.1662,-6.1805,-6.1828,-6.1745,-6.1995,-6.1905,-6.1925,-6.1975,-6.2003,-6.2025,-6.2016,-6.1652,0,0,0,0,0,-6.132,-6.1411,-6.1448,-6.1588,-6.1616,-6.1626,-6.1676,-6.1662,-6.1715,-6.1736,-6.1763,-6.1814,-6.1896,-6.1951,-6.2028,-6.2196,-6.2206,-6.2273,-6.2295,-6.2313,-6.2331,-6.2419,-6.2449,-6.2131,-6.2131,-6.2131,0,0,-6.1406,-6.1444,-6.1502,-6.1609,-6.1648,-6.1741,-6.1645,-6.1748,-6.1815,-6.1751,-6.1881,-6.1903,-6.1959,-6.2111,-6.218,-6.2135,-6.242,-6.2331,-6.2345,-6.2353,-6.2436,-6.2466,-6.2493,-6.2141,-6.2139,-6.2138,0,0,-6.161,-6.1649,-6.1769,-6.181,-6.1869,-6.1875,-6.1904,-6.1953,-6.1965,-6.2096,-6.2049,-6.2128,-6.2271,-6.2312,-6.2352,-6.2569,-6.2528,-6.2594,-6.2711,-6.2797,-6.2822,-6.2844,-6.292,-6.2947,-6.2611,-6.2612,-6.2612,0,-6.1709,-6.1849,-6.1835,-6.1941,-6.1988,-6.1934,-6.2055,-6.2094,-6.2176,-6.2209,-6.2158,-6.2335,-6.2369,-6.2529,-6.2582,-6.2616,-6.2647,-6.2588,-6.282,-6.2842,-6.2862,-6.2934,-6.2963,-6.2619,-6.2619,-6.2618,-6.2617,0,-6.1966,-6.2064,-6.2153,-6.2234,-6.2292,-6.2404,-6.2405,-6.2465,-6.2446,-6.2456,-6.2588,-6.2627,-6.271,-6.2747,-6.2729,-6.2904,-6.2874,-6.2822,-6.2731,-6.29,-6.2967,-6.2995,-6.263,-6.2628,-6.2625,-6.2623,0,0,-6.2238,-6.2309,-6.2342,-6.2377,-6.2438,-6.2512,-6.2621,-6.2703,-6.2754,-6.2811,-6.2901,-6.3022,-6.2973,-6.3018,-6.3004,-6.308,-6.3247,-6.3018,-6.3019,-6.3058,-6.344,-6.3479,-6.3511,-6.3221,-6.3226,-6.323,-6.3435,0,-6.2444,-6.2636,-6.2625,-6.2804,-6.2892,-6.2842,-6.2936,-6.2983,-6.2994,-6.3069,-6.3081,-6.3167,-6.3097,-6.3124,-6.3197,-6.3212,-6.3324,-6.3197,-6.3302,-6.3306,-6.3289,-6.3547,-6.3588,-6.378,-6.3461,-6.3466,-6.3469,0,-6.2711,-6.2778,-6.2966,-6.3012,-6.3049,-6.3134,-6.3207,-6.3281,-6.3331,-6.3334,-6.3384,-6.3357,-6.3464,-6.337,-6.3517,-6.3431,-6.3473,-6.3487,-6.3494,-6.3503,-6.3398,-6.3561,-6.3841,-6.3869,-6.3511,-6.3507,-6.3504,0,-6.2888,-6.3026,-6.3155,-6.3187,-6.3245,-6.3305,-6.3332,-6.3377,-6.3426,-6.349,-6.3521,-6.3596,-6.3637,-6.3695,-6.3688,-6.3621,-6.3836,-6.3742,-6.384,-6.384,-6.3888,-6.3885,-6.4177,-6.3917,-6.3916,-6.3916,-6.3915,0,-6.3119,-6.3236,-6.3236,-6.3315,-6.3444,-6.3429,-6.3556,-6.3575,-6.3615,-6.3696,-6.3657,-6.3733,-6.372,-6.3795,-6.379,-6.3911,-6.393,-6.3934,-6.3931,-6.3938,-6.3937,-6.3964,-6.3951,-6.3923,-6.3921,-6.392,-6.3919,0,-6.3339,-6.3344,-6.3482,-6.3525,-6.3538,-6.363,-6.3666,-6.374,-6.3748,-6.3851,-6.3874,-6.3886,-6.3972,-6.3971,-6.407,-6.4066,-6.4215,-6.4197,-6.4198,-6.4194,-6.4292,-6.4282,-6.4611,-6.4653,-6.4366,-6.4369,-6.4371,0,-6.3486,-6.3575,-6.3627,-6.3679,-6.3709,-6.3793,-6.3843,-6.3832,-6.3885,-6.3948,-6.4015,-6.4098,-6.4164,-6.4305,-6.4321,-6.4396,-6.4379,-6.4489,-6.439,-6.4392,-6.4379,-6.4373,-6.4381,-6.4508,-6.4511,-6.4514,-6.4516,0,-6.3746,-6.3743,-6.3818,-6.3893,-6.3955,-6.4013,-6.4067,-6.4111,-6.4105,-6.4166,-6.4255,-6.4307,-6.4407,-6.449,-6.4561,-6.4586,-6.455,-6.4547,-6.4573,-6.458,-6.4577,-6.4579,-6.425,-6.4539,-6.4537,-6.4535,-6.4534,-6.4533,-6.3933,-6.4008,-6.4056,-6.414,-6.4179,-6.423,-6.4302,-6.4318,-6.4392,-6.4474,-6.4462,-6.4561,-6.4606,-6.4699,-6.473,-6.4806,-6.4767,-6.4805,-6.4815,-6.4824,-6.4835,-6.4566,-6.4819,-6.4818,-6.4817,-6.4817,-6.4816,0,-6.4189,-6.4217,-6.4294,-6.4371,-6.4436,-6.4397,-6.4454,-6.4511,-6.4599,-6.4645,-6.4711,-6.4812,-6.4891,-6.4913,-6.4989,-6.5045,-6.503,-6.5065,-6.506,-6.5066,-6.4866,-6.4835,-6.5076,-6.5076,-6.5076,-6.5076,-6.5076,-6.5076,-6.433,-6.4455,-6.4458,-6.4601,-6.4628,-6.4725,-6.4761,-6.4806,-6.4843,-6.4958,-6.5024,-6.5038,-6.5074,-6.5152,-6.5222,-6.5226,-6.5255,-6.5297,-6.5295,-6.5107,-6.5081,-6.5056,-6.5027,-6.5304,-6.5304,-6.5489,-6.549,-6.5492]}]]